Port Kembla Harbour Observation History
Time Wind Speed Temp Pressure Rel. Hum Rain
29/07:00am SW 5-7 kts 14.0°c 1025.4 hPa n/a n/a
29/06:30am WSW 6-9 kts 14.3°c 1025.0 hPa n/a n/a
29/06:00am WSW 6-8 kts 14.8°c 1024.6 hPa n/a n/a
29/05:30am WSW 6-9 kts 15.0°c 1024.3 hPa n/a n/a
29/05:00am WSW 6-8 kts 15.1°c 1024.1 hPa n/a n/a
29/04:30am WSW 4-5 kts 14.7°c 1023.8 hPa n/a n/a
29/04:00am WSW 4-5 kts 14.6°c 1023.7 hPa n/a n/a
29/03:30am SW 2-3 kts 14.6°c 1023.6 hPa n/a n/a
29/03:00am SW 4-6 kts 14.3°c 1023.6 hPa n/a n/a
29/02:30am WSW 6-8 kts 14.6°c 1023.5 hPa n/a n/a
29/02:00am WSW 6-8 kts 14.8°c 1023.3 hPa n/a n/a
29/01:30am WSW 5-6 kts 14.6°c 1023.1 hPa n/a n/a
29/01:00am WSW 7-8 kts 14.4°c 1023.0 hPa n/a n/a
29/12:30am WSW 5-8 kts 14.7°c 1023.1 hPa n/a n/a
29/12:00am WSW 6-7 kts 14.7°c 1023.2 hPa n/a n/a
Time Wind Speed Temp Pressure Rel. Hum Rain
28/11:30pm WSW 6-7 kts 14.7°c 1023.4 hPa n/a n/a
28/11:00pm WSW 7-9 kts 14.9°c 1023.2 hPa n/a n/a
28/10:30pm WSW 7-9 kts 15.2°c 1023.1 hPa n/a n/a
28/10:00pm WSW 7-9 kts 15.5°c 1023.0 hPa n/a n/a
28/09:30pm WSW 6-7 kts 15.6°c 1023.0 hPa n/a n/a
28/09:00pm WSW 6-8 kts 15.3°c 1022.7 hPa n/a n/a
28/08:30pm WSW 4-6 kts 15.1°c 1022.6 hPa n/a n/a
28/08:00pm WSW 5-6 kts 15.6°c 1022.2 hPa n/a n/a
28/07:30pm WSW 4-5 kts 15.6°c 1021.9 hPa n/a n/a
28/07:00pm WSW 6-7 kts 16.2°c 1021.6 hPa n/a n/a
28/06:30pm SSW 4-7 kts 16.7°c 1021.2 hPa n/a n/a
28/06:00pm SW 6-10 kts 17.4°c 1020.9 hPa n/a n/a
28/05:30pm SSW 5-9 kts 17.8°c 1020.5 hPa n/a n/a
28/05:00pm S 5-10 kts 18.0°c 1020.1 hPa n/a n/a
28/04:30pm S 6-13 kts 18.3°c 1019.7 hPa n/a n/a
28/04:00pm S 6-11 kts 18.5°c 1019.3 hPa n/a n/a
28/03:30pm S 4-9 kts 18.8°c 1019.1 hPa n/a n/a
28/03:00pm SSE 5-9 kts 18.9°c 1018.8 hPa n/a n/a
28/02:30pm SSE 4-9 kts 19.5°c 1018.7 hPa n/a n/a
28/02:00pm SE 7-9 kts 19.4°c 1018.7 hPa n/a n/a
28/01:30pm ESE 5-7 kts 18.9°c 1018.7 hPa n/a n/a
28/01:00pm ESE 5-7 kts 18.5°c 1019.0 hPa n/a n/a
28/12:30pm SE 6-8 kts 18.5°c 1019.3 hPa n/a n/a
28/12:00pm S 4-8 kts 19.5°c 1019.4 hPa n/a n/a
28/11:30am WSW 5-7 kts 19.5°c 1019.6 hPa n/a n/a
28/11:00am WSW 4-7 kts 19.2°c 1019.9 hPa n/a n/a
28/10:30am SW 3-7 kts 18.9°c 1020.2 hPa n/a n/a
28/10:00am W 4-6 kts 18.7°c 1020.4 hPa n/a n/a
28/09:30am W 4-7 kts 17.9°c 1020.5 hPa n/a n/a
28/09:00am WNW 2-4 kts 17.1°c 1020.4 hPa n/a n/a
28/08:30am WSW 2-3 kts 16.0°c 1020.4 hPa n/a n/a
28/08:00am W 3-4 kts 15.4°c 1020.2 hPa n/a n/a
28/07:30am WSW 4-5 kts 14.3°c 1020.1 hPa n/a n/a
28/07:00am WSW 4-5 kts 14.2°c 1019.7 hPa n/a n/a
28/06:30am WSW 2-3 kts 14.1°c 1019.5 hPa n/a n/a
28/06:00am WSW 3-4 kts 14.1°c 1019.2 hPa n/a n/a
28/05:30am W 4-7 kts 13.7°c 1018.9 hPa n/a n/a
28/05:00am WSW 3-5 kts 14.3°c 1018.9 hPa n/a n/a
28/04:30am WSW 3-4 kts 14.3°c 1019.0 hPa n/a n/a
28/04:00am WSW 3-4 kts 14.3°c 1019.1 hPa n/a n/a
28/03:30am WNW 5-7 kts 15.3°c 1019.2 hPa n/a n/a
28/03:00am WSW 4-5 kts 14.6°c 1019.3 hPa n/a n/a
28/02:30am WSW 3-5 kts 14.3°c 1019.2 hPa n/a n/a
28/02:00am WSW 5-6 kts 14.2°c 1019.1 hPa n/a n/a
28/01:30am WSW 4-5 kts 14.0°c 1019.3 hPa n/a n/a
28/01:00am WSW 4-6 kts 13.3°c 1019.3 hPa n/a n/a
28/12:30am WSW 5-6 kts 13.9°c 1019.5 hPa n/a n/a
28/12:00am SW 3-4 kts 13.7°c 1019.4 hPa n/a n/a
Time Wind Speed Temp Pressure Rel. Hum Rain
27/11:30pm WSW 3-5 kts 13.6°c 1019.7 hPa n/a n/a
27/11:00pm WSW 3-5 kts 13.7°c 1019.9 hPa n/a n/a
27/10:30pm SW 3 kts 13.9°c 1020.2 hPa n/a n/a
27/10:00pm SW 3-5 kts 14.2°c 1020.3 hPa n/a n/a
27/09:30pm WSW 3-4 kts 14.4°c 1020.3 hPa n/a n/a
27/09:00pm WSW 5-6 kts 14.6°c 1020.4 hPa n/a n/a
27/08:30pm WSW 3-4 kts 14.8°c 1020.3 hPa n/a n/a
27/08:00pm WSW 3-4 kts 14.8°c 1020.3 hPa n/a n/a
27/07:30pm WSW 4-5 kts 14.9°c 1020.2 hPa n/a n/a
27/07:00pm WSW 3 kts 15.6°c 1020.2 hPa n/a n/a
27/06:30pm SW 3-4 kts 15.8°c 1019.9 hPa n/a n/a
27/06:00pm SW 2 kts 16.6°c 1019.8 hPa n/a n/a
27/05:30pm SSW 1-3 kts 17.0°c 1019.6 hPa n/a n/a
27/05:00pm S 2-3 kts 17.0°c 1019.5 hPa n/a n/a
27/04:30pm SSE 2-3 kts 16.9°c 1019.3 hPa n/a n/a
27/04:00pm SSE 2-4 kts 17.3°c 1019.5 hPa n/a n/a
27/03:30pm SE 5-7 kts 17.5°c 1019.4 hPa n/a n/a
27/03:00pm SSE 4-7 kts 17.3°c 1019.3 hPa n/a n/a
27/02:30pm SE 6-9 kts 17.8°c 1019.6 hPa n/a n/a
27/02:00pm SE 5-8 kts 17.6°c 1019.7 hPa n/a n/a
27/01:30pm SE 5-8 kts 18.0°c 1020.0 hPa n/a n/a
27/01:00pm SSE 4-8 kts 18.1°c 1020.3 hPa n/a n/a
27/12:30pm SSE 4-8 kts 17.9°c 1020.5 hPa n/a n/a
27/12:00pm SSE 4-6 kts 17.4°c 1020.8 hPa n/a n/a
27/11:30am S 3-7 kts 17.5°c 1021.3 hPa n/a n/a
27/11:00am SSW 4-7 kts 17.5°c 1021.8 hPa n/a n/a
27/10:30am S 4-7 kts 17.0°c 1022.1 hPa n/a n/a
27/10:00am SW 5-7 kts 16.5°c 1022.2 hPa n/a n/a
27/09:30am WSW 6-8 kts 15.6°c 1022.4 hPa n/a n/a
27/09:00am WSW 7-9 kts 15.0°c 1022.3 hPa n/a n/a
27/08:30am WSW 7-9 kts 14.2°c 1022.5 hPa n/a n/a
27/08:00am SW 5-6 kts 13.3°c 1022.3 hPa n/a n/a
27/07:30am SW 5-7 kts 13.1°c 1022.1 hPa n/a n/a
27/07:00am SW 5-6 kts 13.0°c 1022.1 hPa n/a n/a
27/06:30am SW 4-7 kts 13.2°c 1021.9 hPa n/a n/a
27/06:00am WSW 7-9 kts 13.6°c 1021.7 hPa n/a n/a
27/05:30am WSW 6-7 kts 13.4°c 1021.6 hPa n/a n/a
27/05:00am WSW 4-7 kts 13.2°c 1021.6 hPa n/a n/a
27/04:30am SW 4-6 kts 13.6°c 1021.6 hPa n/a n/a
27/04:00am SW 4-5 kts 13.8°c 1021.7 hPa n/a n/a
27/03:30am WSW 5-7 kts 14.2°c 1022.1 hPa n/a n/a
27/03:00am WSW 8-9 kts 14.3°c 1022.4 hPa n/a n/a
27/02:30am W 9-11 kts 14.0°c 1022.6 hPa n/a n/a
27/02:00am WSW 5-7 kts 14.5°c 1022.5 hPa n/a n/a
27/01:30am SW 2-3 kts 14.0°c 1023.0 hPa n/a n/a
27/01:00am WSW 5-8 kts 14.3°c 1022.8 hPa n/a n/a
27/12:30am WSW 4-7 kts 14.0°c 1023.1 hPa n/a n/a
27/12:00am SW 3-5 kts 13.9°c 1023.3 hPa n/a n/a